[[{"header":{"parameterUnit":"m.s-1","parameterCategory":1,"la1":30.2991,"la2":30.254,"lo1":-89.0895,"lo2":-89.0444,"dy":0.0017,"dx":0.0017,"nx":28,"ny":28,"refTime":"2023-09-22T09:00:00:Z","depth":0,"parameterNumber":2,"parameterNumberName":"U-component_of_WINDS"},"data":[0,0,0,0,0,0,0,0,0,0,0,0,0,0,0,0,0,0,0,0,0,0,0,0,0,0,0,0,0,0,0,0,0,0,0,0,0,0,0,0,0,0,0,0,0,0,0,0,0,0,0,0,0,0,0,0,0,0,0.267,0.2672,0,0.2807,0.2809,0.281,0.2882,0.2882,0.2882,0.2882,0.3024,0.3028,0.3032,0,0,0,0,0,0,0,0,0,0,0,0,0,0.2472,0.2475,0.267,0.2672,0.2674,0.2807,0.2809,0.281,0.2882,0.2882,0.2882,0.2882,0.3023,0.3028,0.3032,0,0,0,0,0,0,0,0,0,0,0,0,0,0.2578,0.2477,0.267,0.2725,0.2732,0.2806,0.2809,0.2811,0.2882,0.2882,0.2882,0.2883,0.3022,0.3027,0.3033,0.3063,0,0,0.3049,0.3052,0,0,0,0,0,0,0,0,0.2572,0.2586,0.2716,0.2722,0.2729,0.2828,0.2791,0.2896,0.2882,0.2825,0.2882,0.2883,0.2959,0.297,0.2995,0.307,0.3076,0.305,0.3053,0.3056,0.3057,0,0,0,0,0,0,0,0.2565,0.258,0.2724,0.2717,0.2726,0.2744,0.2759,0.2811,0.2889,0.283,0.2836,0.2851,0.2963,0.2989,0.2999,0.3078,0.305,0.3055,0.3058,0.306,0.3183,0.3183,0,0,0,0,0,0,0.2548,0.2574,0.272,0.2729,0.2649,0.2747,0.2764,0.2796,0.2889,0.2903,0.285,0.2853,0.298,0.2992,0.3004,0.3045,0.3056,0.3061,0.3064,0.3183,0.3183,0.3183,0,0,0,0,0,0,0.2544,0.2561,0.2715,0.2653,0.2674,0.275,0.2785,0.2798,0.2825,0.2904,0.2919,0.2863,0.2981,0.2996,0.3047,0.3051,0.3063,0.3068,0.3183,0.3183,0.3183,0.3127,0,0,0,0,0,0,0.2538,0.2559,0.2571,0.2652,0.2677,0.2755,0.2786,0.2801,0.2834,0.284,0.292,0.2934,0.2982,0.3039,0.3053,0.3059,0.3073,0.3183,0.3183,0.3183,0.3129,0.3125,0.3122,0,0,0,0,0,0.2531,0.2551,0.2571,0.2589,0.2694,0.2755,0.2769,0.2824,0.2834,0.2847,0.2898,0.2931,0.3048,0.3043,0.306,0.3067,0.3183,0.3183,0.3183,0.3131,0.3126,0.3122,0,0,0,0,0,0,0.2469,0.2563,0.2586,0.2634,0.2686,0.2767,0.2786,0.2817,0.2868,0.2871,0.2937,0.2954,0.2999,0.3039,0.3032,0.3101,0.3119,0.3122,0.3074,0.307,0.3066,0.3056,0.3077,0,0,0,0,0,0.2461,0.2503,0.2582,0.2616,0.2641,0.2708,0.2738,0.2774,0.2832,0.2854,0.2909,0.2963,0.3012,0.3043,0.3093,0.3135,0.3153,0.3148,0.3145,0.3141,0.3143,0.3167,0.3165,0.3183,0.3183,0.3183,0,0,0.2445,0.2501,0.2524,0.2605,0.265,0.2692,0.2727,0.277,0.2802,0.2862,0.2912,0.2954,0.3019,0.3065,0.3088,0.31,0.3142,0.3141,0.3138,0.3142,0.3167,0.3165,0.3163,0.3183,0.3183,0.3183,0,0,0.2437,0.2484,0.2516,0.256,0.2627,0.2671,0.2679,0.2755,0.2785,0.2837,0.2882,0.292,0.3004,0.3048,0.3081,0.3087,0.3119,0.3101,0.3083,0.3105,0.3103,0.3103,0.3104,0.3103,0.3103,0.3103,0.3103,0,0.2408,0.2473,0.2529,0.2569,0.2604,0.2658,0.2691,0.2731,0.2811,0.2833,0.2844,0.2948,0.2996,0.3053,0.3054,0.3079,0.309,0.3093,0.3099,0.3099,0.3099,0.31,0.3101,0.31,0.3101,0.3101,0.3101,0,0.2434,0.2478,0.2497,0.2571,0.2607,0.2644,0.2705,0.2735,0.2768,0.2811,0.2862,0.2921,0.2983,0.2999,0.3033,0.306,0.3064,0.3086,0.3106,0.3093,0.3096,0.3097,0.3096,0.3097,0.3098,0.3099,0,0,0.2393,0.2496,0.2502,0.2535,0.2612,0.2647,0.2686,0.2745,0.2768,0.2821,0.2855,0.2923,0.2943,0.298,0.3019,0.3039,0.3038,0.3058,0.3061,0.3052,0.307,0.3052,0.3052,0.3059,0.306,0.306,0.3064,0,0.2395,0.2466,0.2517,0.2568,0.2608,0.266,0.2693,0.2743,0.2784,0.2824,0.287,0.2916,0.294,0.2963,0.2984,0.3033,0.3042,0.3034,0.3091,0.3092,0.3072,0.3054,0.3036,0.3036,0.3065,0.3065,0.3066,0,0.2408,0.2457,0.2512,0.2582,0.2601,0.263,0.2687,0.2726,0.2783,0.2812,0.2852,0.2891,0.2934,0.2949,0.3007,0.3,0.3027,0.3054,0.3055,0.3063,0.3078,0.3059,0.3038,0.3037,0.3068,0.3068,0.3068,0,0.237,0.2451,0.2494,0.2521,0.2605,0.2623,0.2659,0.2717,0.2749,0.2799,0.282,0.2874,0.2904,0.2945,0.2998,0.3004,0.3051,0.3071,0.3075,0.3073,0.3082,0.3081,0.3064,0.31,0.31,0.31,0.31,0,0.2367,0.2399,0.2478,0.2504,0.254,0.2598,0.2632,0.2672,0.2723,0.2757,0.2805,0.2837,0.2905,0.2945,0.2986,0.3027,0.3041,0.3064,0.3075,0.306,0.3057,0.3078,0.3079,0.31,0.31,0.31,0.31,0,0.2332,0.2387,0.2436,0.2511,0.253,0.2553,0.2617,0.2644,0.2686,0.2729,0.2743,0.281,0.2859,0.2915,0.2983,0.3011,0.3049,0.3065,0.3029,0.3035,0.3035,0.3034,0.3031,0.3032,0.3067,0.3067,0.3067,0,0.2327,0.2352,0.2428,0.2454,0.2488,0.253,0.2562,0.2619,0.265,0.2717,0.2735,0.2787,0.2832,0.2908,0.2963,0.3014,0.3031,0.3027,0.304,0.3023,0.303,0.3027,0.303,0.3023,0.3022,0.3022,0.3021,0,0.2311,0.2336,0.2379,0.2432,0.2468,0.2512,0.2559,0.2577,0.2644,0.2676,0.2726,0.2761,0.2829,0.2879,0.2937,0.2975,0.3009,0.3017,0.302,0.3005,0.2982,0.2993,0.3018,0.3017,0.3017,0.3017,0.3018,0.3018,0.229,0.2314,0.237,0.2417,0.2457,0.2499,0.2527,0.2572,0.2615,0.2674,0.2705,0.2754,0.2809,0.2891,0.2926,0.2965,0.2977,0.2982,0.2983,0.2984,0.2978,0.2976,0.2976,0.2976,0.2976,0.2977,0.2977,0,0.2276,0.2314,0.2356,0.2418,0.2454,0.2482,0.2534,0.2563,0.2605,0.2653,0.2696,0.2752,0.2801,0.2858,0.291,0.293,0.2947,0.2942,0.2941,0.2949,0.2966,0.2957,0.2927,0.2927,0.2927,0.2927,0.2927,0.2927,0.2272,0.2313,0.2344,0.2406,0.2444,0.2491,0.2518,0.2557,0.2596,0.2656,0.2696,0.2733,0.2784,0.2841,0.2886,0.2902,0.2918,0.2909,0.2928,0.2943,0.2948,0.2952,0.2944,0.2912,0.2912,0.2908,0.2908,0.2908]},{"header":{"parameterUnit":"m.s-1","parameterCategory":1,"la1":30.2991,"la2":30.254,"lo1":-89.0895,"lo2":-89.0444,"dy":0.0017,"dx":0.0017,"nx":28,"ny":28,"refTime":"2023-09-22T09:00:00:Z","depth":0,"parameterNumber":3,"parameterNumberName":"V-component_of_WINDS"},"data":[0,0,0,0,0,0,0,0,0,0,0,0,0,0,0,0,0,0,0,0,0,0,0,0,0,0,0,0,0,0,0,0,0,0,0,0,0,0,0,0,0,0,0,0,0,0,0,0,0,0,0,0,0,0,0,0,0,0,2.7148,2.7148,0,2.7086,2.7086,2.7085,2.7034,2.7034,2.7033,2.7033,2.6968,2.6966,2.6965,0,0,0,0,0,0,0,0,0,0,0,0,0,2.7221,2.722,2.7149,2.7148,2.7147,2.7087,2.7086,2.7085,2.7034,2.7034,2.7033,2.7033,2.6968,2.6967,2.6965,0,0,0,0,0,0,0,0,0,0,0,0,0,2.7177,2.7219,2.7149,2.7115,2.7111,2.7087,2.7086,2.7085,2.7035,2.7034,2.7033,2.7032,2.6969,2.6967,2.6965,2.6969,0,0,2.6959,2.6958,0,0,0,0,0,0,0,0,2.718,2.7175,2.712,2.7117,2.7113,2.7067,2.7087,2.7046,2.7035,2.7064,2.7033,2.7032,2.7001,2.6997,2.6987,2.6966,2.6963,2.6959,2.6958,2.6957,2.6957,0,0,0,0,0,0,0,2.7183,2.7177,2.7124,2.712,2.7115,2.7101,2.7094,2.7079,2.7038,2.7061,2.7057,2.7051,2.6999,2.6989,2.6985,2.6962,2.6959,2.6957,2.6956,2.6956,2.6938,2.6939,0,0,0,0,0,0,2.7191,2.718,2.7126,2.7122,2.7145,2.7101,2.7093,2.7083,2.7038,2.703,2.7051,2.7048,2.6992,2.6987,2.6982,2.6982,2.6957,2.6955,2.6954,2.6938,2.6939,2.6939,0,0,0,0,0,0,2.7193,2.7187,2.7128,2.715,2.7141,2.71,2.7089,2.7082,2.7071,2.703,2.7022,2.7048,2.6991,2.6985,2.6972,2.6979,2.6955,2.6953,2.6937,2.6938,2.6939,2.6982,0,0,0,0,0,0,2.7195,2.7188,2.719,2.715,2.714,2.712,2.709,2.7081,2.7068,2.7064,2.7025,2.7018,2.699,2.6975,2.697,2.6976,2.6951,2.6936,2.6937,2.6939,2.698,2.6985,2.6989,0,0,0,0,0,2.7198,2.7205,2.719,2.7184,2.7142,2.7121,2.7115,2.7083,2.7069,2.707,2.7043,2.702,2.6979,2.6974,2.6968,2.6974,2.6936,2.6937,2.6939,2.6978,2.6984,2.6989,0,0,0,0,0,0,2.7246,2.7199,2.7182,2.7177,2.7153,2.7112,2.7112,2.709,2.707,2.7067,2.7028,2.7019,2.701,2.6991,2.6986,2.6974,2.6954,2.6955,2.6986,2.6991,2.6996,2.7,2.695,0,0,0,0,0,2.7256,2.7243,2.7203,2.7201,2.7191,2.7154,2.7143,2.7121,2.7094,2.7084,2.7056,2.7031,2.7013,2.7001,2.6982,2.6978,2.6967,2.6978,2.6982,2.6986,2.6986,2.698,2.6983,2.6944,2.6944,2.6944,0,0,2.7276,2.7249,2.7243,2.721,2.7189,2.7176,2.7146,2.7133,2.7122,2.7082,2.7067,2.7046,2.7016,2.7006,2.7001,2.699,2.6995,2.6988,2.6991,2.6989,2.6982,2.6985,2.6989,2.6945,2.6945,2.6945,0,0,2.7306,2.7285,2.728,2.726,2.7228,2.7204,2.7203,2.7165,2.7149,2.7134,2.7103,2.7089,2.7059,2.7037,2.7023,2.7043,2.7019,2.7038,2.7059,2.7053,2.7056,2.7059,2.7063,2.7066,2.7038,2.7038,2.7038,0,2.7334,2.7313,2.7281,2.7269,2.7255,2.7218,2.7212,2.7194,2.7158,2.7148,2.7137,2.7096,2.7073,2.7057,2.7061,2.7051,2.7047,2.7041,2.7059,2.7061,2.7063,2.7067,2.7069,2.7041,2.704,2.704,2.704,0,2.7349,2.7335,2.7335,2.7301,2.7286,2.7278,2.7243,2.7232,2.7211,2.7187,2.7171,2.7142,2.7115,2.711,2.7089,2.709,2.7084,2.7066,2.7045,2.7069,2.7072,2.7074,2.7044,2.7043,2.7042,2.7042,0,0,2.7406,2.7353,2.7354,2.7337,2.7299,2.7287,2.7277,2.725,2.7241,2.7217,2.7206,2.718,2.7163,2.7146,2.7123,2.7118,2.7132,2.71,2.7099,2.7105,2.7129,2.7141,2.7143,2.7117,2.7117,2.7118,2.713,0,2.7427,2.7406,2.7376,2.7364,2.735,2.7314,2.7305,2.728,2.7257,2.7241,2.7215,2.7197,2.7177,2.7166,2.716,2.7132,2.7136,2.7131,2.7104,2.7104,2.7111,2.7145,2.7158,2.7172,2.7132,2.7132,2.7132,0,2.7449,2.7427,2.7414,2.7376,2.7369,2.7361,2.7334,2.7319,2.729,2.7273,2.7254,2.7228,2.7213,2.7196,2.7173,2.7171,2.7158,2.7142,2.7142,2.7137,2.7118,2.7139,2.7175,2.7177,2.7134,2.7134,2.7134,0,2.7488,2.7456,2.7443,2.7431,2.7387,2.7382,2.7363,2.7333,2.7319,2.7295,2.7284,2.7259,2.7245,2.7225,2.7192,2.7183,2.7173,2.7153,2.7157,2.7158,2.7155,2.7155,2.7188,2.715,2.715,2.715,2.715,0,2.7514,2.7507,2.746,2.7453,2.7443,2.7408,2.7399,2.7377,2.7351,2.7337,2.7305,2.7292,2.7251,2.7233,2.7208,2.7192,2.7186,2.7171,2.7164,2.7172,2.7174,2.7162,2.716,2.7151,2.7151,2.7151,2.7151,0,2.7556,2.7525,2.7508,2.7468,2.7458,2.7453,2.7417,2.7408,2.7383,2.7366,2.736,2.7321,2.7298,2.7264,2.7231,2.7213,2.72,2.719,2.7211,2.7206,2.7211,2.721,2.7236,2.7236,2.72,2.7201,2.7201,0,2.7573,2.7567,2.7526,2.7515,2.7497,2.748,2.7465,2.743,2.7416,2.7381,2.7375,2.735,2.7328,2.7292,2.726,2.7234,2.7222,2.7232,2.7217,2.7226,2.7219,2.7219,2.7217,2.7235,2.7236,2.7236,2.7237,0,2.7606,2.7591,2.7571,2.7546,2.753,2.7508,2.7484,2.7477,2.7436,2.7422,2.7398,2.7381,2.7347,2.7322,2.7291,2.727,2.7246,2.7242,2.7241,2.7249,2.726,2.7252,2.7218,2.7241,2.7241,2.724,2.724,2.724,2.7634,2.7626,2.7596,2.7575,2.7554,2.7533,2.7521,2.7495,2.7475,2.7445,2.7426,2.7403,2.7371,2.7328,2.7308,2.7289,2.7279,2.7278,2.7277,2.7277,2.7279,2.7265,2.7283,2.7283,2.7283,2.7283,2.7283,0,2.7664,2.7643,2.7624,2.7592,2.7575,2.7555,2.7528,2.7515,2.7495,2.7469,2.7448,2.742,2.7395,2.7361,2.7333,2.7323,2.7311,2.7317,2.7316,2.7311,2.7291,2.7294,2.7327,2.7327,2.7327,2.7327,2.7327,2.7327,2.7677,2.7662,2.7643,2.7617,2.7595,2.7573,2.7559,2.7538,2.7517,2.7487,2.7467,2.7445,2.7415,2.7384,2.736,2.735,2.734,2.7349,2.7336,2.7317,2.7313,2.7309,2.7311,2.7348,2.7348,2.7357,2.7357,2.7358]}]]